Location: Chequamegon National Forest
(46.1070°N, 90.8420°W)
Time: 15:51:39
(UTC-06:00)

Amateur Radio Satellites - All Passes

Search period start: 27 November 2014 15:21
Search period end: 28 November 2014 15:21
Location: Chequamegon National Forest, 46.1070°N, 90.8420°W

Satellite Date Start Highest point End Downlink Frequencies (MHz)
Time Altitude Azimuth
HORYU 2 27 Nov 15:28:22 15:31:50 22° 267° (W) 15:35:19 437.375
MaSat-1 27 Nov 15:45:16 15:47:23 19° 306° (NW) 15:49:22 437.345
PHONESAT 2.4 27 Nov 15:45:57 15:49:18 32° 173° (S) 15:52:39 2401.200-2431.200
VERMONT LUNAR 27 Nov 15:50:05 15:53:23 33° 177° (S) 15:56:41 437.305
CUTE-I 27 Nov 15:56:08 15:59:29 17° 57° (ENE) 16:02:50 437.470
STARS 27 Nov 16:01:12 16:04:55 27° 294° (WNW) 16:08:37 437.465
JAS-2 27 Nov 16:25:05 16:32:50 89° 75° (ENE) 16:40:44 435.910
MOZHAYETS 4 27 Nov 16:25:14 16:29:17 29° 95° (E) 16:33:19
O/OREOS (USA 219) 27 Nov 16:40:50 16:43:12 14° 261° (W) 16:45:34 437.305
RS-15 27 Nov 16:50:26 17:01:23 78° 309° (NW) 17:12:27 29.354- 29.394
Cubesat XI-IV 27 Nov 16:52:55 16:58:02 48° 68° (ENE) 17:03:10 437.490
PRISM 27 Nov 17:01:30 17:02:58 12° 89° (E) 17:04:27 437.425
AO-7 27 Nov 17:10:43 17:16:31 21° 271° (W) 17:22:23 29.400- 29.500
GONETS M04 27 Nov 17:10:52 17:17:01 20° 57° (ENE) 17:23:05
PHONESAT 2.4 27 Nov 17:24:21 17:27:39 30° 190° (S) 17:30:57 2401.200-2431.200
VERMONT LUNAR 27 Nov 17:28:20 17:31:24 26° 194° (SSW) 17:34:27 437.305
CUTE-I 27 Nov 17:33:32 17:38:54 82° 256° (WSW) 17:44:17 437.470
HO-68 27 Nov 17:45:13 17:48:43 14° 45° (NE) 17:52:13 435.675
STRAND 1 27 Nov 17:48:03 17:51:10 16° 90° (E) 17:54:16 437.568
MOZHAYETS 4 27 Nov 18:02:20 18:06:32 34° 292° (WNW) 18:10:44
CUBESAT XI-V 27 Nov 18:11:44 18:15:44 27° 94° (E) 18:19:40 437.345
AIST 1 27 Nov 18:12:57 18:15:03 13° 83° (E) 18:17:09
JAS-2 27 Nov 18:13:09 18:18:45 21° 274° (W) 18:24:27 435.910
Cubesat XI-IV 27 Nov 18:33:55 18:38:21 26° 266° (W) 18:42:48 437.490
PRISM 27 Nov 18:34:47 18:39:02 73° 286° (WNW) 18:43:14 437.425
BRITE-PL 27 Nov 18:40:52 18:43:06 13° 61° (ENE) 18:45:16 437.365/2234.400
CUTE 1.7 + AOD 2 27 Nov 18:56:03 18:58:39 16° 62° (ENE) 19:01:16 437.475
PHONESAT 2.4 27 Nov 19:03:48 19:05:48 14° 206° (SSW) 19:07:48 2401.200-2431.200
PCSat 27 Nov 19:04:39 19:09:52 51° 116° (ESE) 19:15:08 145.827
RS-15 27 Nov 19:06:04 19:15:45 35° 339° (NNW) 19:25:39 29.354- 29.394
GONETS M04 27 Nov 19:06:32 19:15:26 81° 80° (E) 19:24:13
BEESAT 3 27 Nov 19:16:10 19:19:48 31° 116° (ESE) 19:23:29 437.485
CUTE-I 27 Nov 19:18:04 19:19:47 11° 274° (W) 19:21:31 437.470
SEEDS 27 Nov 19:25:33 19:29:05 27° 67° (ENE) 19:32:38 437.485
STRAND 1 27 Nov 19:25:48 19:30:54 71° 287° (WNW) 19:35:57 437.568
HO-68 27 Nov 19:27:59 19:34:59 59° 66° (ENE) 19:42:01 435.675
UKube-1 27 Nov 19:30:14 19:32:15 13° 58° (ENE) 19:34:17 .
BEESAT 2 27 Nov 19:32:52 19:36:45 41° 119° (ESE) 19:40:42 435.950
DELFI C3 27 Nov 19:36:18 19:38:00 12° 60° (ENE) 19:39:41 145.870
AAUSAT CUBESAT 2 27 Nov 19:38:31 19:42:03 28° 67° (ENE) 19:45:37 437.432
GOMX 1 27 Nov 19:38:42 19:42:49 32° 69° (ENE) 19:46:43 467.674
Oscar 11 27 Nov 19:39:13 19:41:57 17° 62° (ENE) 19:44:41 145.826/435.025
AIST 1 27 Nov 19:47:46 19:52:08 64° 281° (W) 19:56:33
CUBESAT XI-V 27 Nov 19:48:59 19:53:14 35° 292° (WNW) 19:57:26 437.345
COMPASS 1 27 Nov 19:54:38 19:58:37 45° 71° (ENE) 20:02:37 437.405
CANX-2 27 Nov 19:55:32 19:59:42 68° 74° (ENE) 20:03:56 2200.000
DX 1 27 Nov 20:05:40 20:09:25 28° 66° (ENE) 20:13:10 434.975-435.025
UWE-3 27 Nov 20:06:32 20:09:06 16° 62° (ENE) 20:11:40 435.000/436.395/437.385
CUBEBUG 2 27 Nov 20:09:48 20:12:50 20° 64° (ENE) 20:15:51 437.445
AIST 2 27 Nov 20:15:33 20:19:42 56° 121° (ESE) 20:23:55 435.215
BRITE-PL 27 Nov 20:16:11 20:21:07 82° 257° (WSW) 20:25:40 437.365/2234.400
DOVE 4 27 Nov 20:25:13 20:29:43 69° 74° (ENE) 20:34:00 437.250
CUTE 1.7 + AOD 2 27 Nov 20:30:01 20:34:09 56° 260° (W) 20:38:21 437.475
ZACube-1 27 Nov 20:36:10 20:39:40 27° 67° (ENE) 20:43:10 437.345
VELOX 1 27 Nov 20:44:14 20:47:49 24° 64° (ENE) 20:51:23 145.980
CINEMA 3 27 Nov 20:46:55 20:51:14 71° 75° (ENE) 20:55:26 145.822/145.860
PCSat 27 Nov 20:48:44 20:53:32 31° 316° (NW) 20:58:22 145.827
ESTCUBE 1 27 Nov 20:51:45 20:53:41 13° 58° (ENE) 20:55:36 437.505/2401.250
BEESAT 3 27 Nov 20:54:12 20:57:59 34° 316° (NW) 21:01:49 437.485
SEEDS 27 Nov 21:01:07 21:04:50 30° 264° (W) 21:08:36 437.485
UKube-1 27 Nov 21:03:28 21:07:49 79° 256° (WSW) 21:12:13 .
GONETS M04 27 Nov 21:04:40 21:11:13 24° 282° (WNW) 21:17:44
STRAND 1 27 Nov 21:07:33 21:09:10 11° 306° (NW) 21:10:46 437.568
DELFI C3 27 Nov 21:08:40 21:12:44 74° 258° (WSW) 21:16:51 145.870
FUNcube-1 27 Nov 21:09:56 21:14:03 58° 73° (ENE) 21:18:09 145.935
AISAT 27 Nov 21:10:56 21:15:10 43° 70° (ENE) 21:19:24 437.250
BEESAT 2 27 Nov 21:11:35 21:15:11 27° 318° (NW) 21:18:49 435.950
Oscar 11 27 Nov 21:13:28 21:17:42 57° 260° (W) 21:21:58 145.826/435.025
AAUSAT CUBESAT 2 27 Nov 21:14:03 21:17:41 29° 265° (W) 21:21:21 437.432
50 SAT 27 Nov 21:15:43 21:19:23 34° 69° (ENE) 21:23:03 437.505
HO-68 27 Nov 21:16:51 21:23:03 31° 266° (W) 21:29:19 435.675
GOMX 1 27 Nov 21:16:55 21:20:57 28° 264° (W) 21:24:48 467.674
CUBEBUG 1 27 Nov 21:17:38 21:20:51 20° 63° (ENE) 21:24:05 437.445
RS-15 27 Nov 21:22:48 21:32:16 31° 13° (NNE) 21:42:00 29.354- 29.394
TIGRISAT 27 Nov 21:26:48 21:27:27 10° 88° (E) 21:28:06 435.000
COMPASS 1 27 Nov 21:31:44 21:34:36 18° 269° (W) 21:37:29 437.405
CANX-2 27 Nov 21:34:24 21:36:08 12° 272° (W) 21:37:53 2200.000
HUMSAT D 27 Nov 21:39:49 21:43:56 77° 75° (ENE) 21:48:04 437.325/437.525
UNISAT 6 27 Nov 21:39:51 21:42:27 15° 90° (E) 21:45:05 437.425
UWE-3 27 Nov 21:41:09 21:45:17 54° 260° (W) 21:49:23 435.000/436.395/437.385
DX 1 27 Nov 21:41:41 21:45:36 31° 263° (W) 21:49:32 434.975-435.025
CUBEBUG 2 27 Nov 21:45:16 21:49:18 43° 261° (W) 21:53:18 437.445
AIST 2 27 Nov 21:55:12 21:58:39 23° 321° (NW) 22:02:09 435.215
DANDE 27 Nov 21:59:40 22:01:42 13° 68° (ENE) 22:03:57 436.750
POLYITAN 1 27 Nov 22:03:39 22:06:28 17° 92° (E) 22:09:16 437.675
QB50P2 27 Nov 22:04:48 22:07:41 18° 92° (E) 22:10:34 145.880/145.840
DOVE 4 27 Nov 22:05:56 22:07:55 13° 270° (W) 22:09:51 437.250
ANTELSAT 27 Nov 22:07:52 22:11:45 28° 95° (E) 22:15:42 437.575/2403.000
DUCHIFAT 1 27 Nov 22:09:22 22:12:25 19° 92° (E) 22:15:28 145.980
ZACube-1 27 Nov 22:12:17 22:15:59 30° 264° (W) 22:19:41 437.345
TISAT 1 27 Nov 22:17:17 22:20:31 21° 64° (ENE) 22:23:45 437.305
VELOX 1 27 Nov 22:20:00 22:24:12 40° 262° (W) 22:28:25 145.980
ESTCUBE 1 27 Nov 22:25:18 22:29:52 88° 257° (WSW) 22:34:28 437.505/2401.250
CINEMA 3 27 Nov 22:27:27 22:28:56 12° 271° (W) 22:30:24 145.822/145.860
ISS 27 Nov 22:28:26 22:31:13 25° 139° (SE) 22:33:59 145.825
NANOSAT C BR1 27 Nov 22:28:37 22:32:23 30° 96° (E) 22:36:06 145.865
SPROUT 27 Nov 22:33:00 22:36:37 27° 66° (ENE) 22:40:14 437.525
PCSat 27 Nov 22:37:57 22:38:47 10° 340° (NNW) 22:39:38 145.827
QB50P1 27 Nov 22:38:40 22:42:38 39° 98° (E) 22:46:35 145.935-145.965
BUGSAT 1 27 Nov 22:38:52 22:42:32 31° 96° (E) 22:46:08 437.445
AISAT 27 Nov 22:48:34 22:51:59 21° 267° (W) 22:55:25 437.250
FUNcube-1 27 Nov 22:48:40 22:50:48 14° 270° (W) 22:52:56 145.935
50 SAT 27 Nov 22:51:40 22:54:47 21° 266° (W) 22:57:55 437.505
CUBEBUG 1 27 Nov 22:52:37 22:56:55 48° 261° (W) 23:01:14 437.445
TIGRISAT 27 Nov 23:00:21 23:04:48 87° 284° (WNW) 23:09:20 435.000
POPSAT HIP 1 27 Nov 23:03:36 23:07:50 72° 102° (ESE) 23:12:03 437.405
BEESAT 27 Nov 23:05:22 23:07:45 14° 57° (ENE) 23:10:08 436.000
CUSAT 1 27 Nov 23:05:49 23:10:24 56° 77° (ENE) 23:16:33 437.405
UNISAT 6 27 Nov 23:15:14 23:19:38 62° 287° (WNW) 23:24:07 437.425
HUMSAT D 27 Nov 23:19:48 23:20:18 10° 272° (W) 23:20:48 437.325/437.525
RS-15 27 Nov 23:36:24 23:47:27 61° 44° (NE) 23:58:55 29.354- 29.394
POLYITAN 1 27 Nov 23:38:37 23:42:42 48° 289° (WNW) 23:46:46 437.675
AUBIESAT-1 27 Nov 23:39:20 23:43:20 42° 63° (ENE) 23:47:40 437.475
QB50P2 27 Nov 23:39:48 23:43:52 46° 289° (WNW) 23:47:55 145.880/145.840
DANDE 27 Nov 23:40:50 23:45:21 86° 260° (W) 23:51:32 436.750
DUCHIFAT 1 27 Nov 23:44:31 23:48:30 42° 290° (WNW) 23:52:28 145.980
ANTELSAT 27 Nov 23:44:36 23:48:34 32° 292° (WNW) 23:52:36 437.575/2403.000
MaSat-1 27 Nov 23:45:45 23:48:04 79° 61° (ENE) 23:50:26 437.345
M-CUBED/EXP-1 PRIME 27 Nov 23:45:56 23:50:02 53° 66° (ENE) 23:54:31 437.505
TISAT 1 27 Nov 23:52:05 23:56:07 41° 262° (W) 00:00:10 437.305
ITUPSAT 1 27 Nov 23:59:47 00:04:15 39° 68° (ENE) 00:08:44 437.325
ISS 28 Nov 00:04:25 00:07:40 59° 337° (NNW) 00:10:56 145.825
NANOSAT C BR1 28 Nov 00:04:37 00:08:12 27° 294° (WNW) 00:11:45 145.865
SPROUT 28 Nov 00:08:43 00:12:36 32° 264° (W) 00:16:31 437.525
SWISSCUBE 28 Nov 00:09:39 00:14:18 53° 71° (ENE) 00:19:00 437.505
BUGSAT 1 28 Nov 00:14:35 00:17:55 25° 294° (WNW) 00:21:14 437.445
QB50P1 28 Nov 00:15:04 00:18:20 22° 295° (WNW) 00:21:35 145.935-145.965
YUBILEINY 28 Nov 00:28:01 00:33:00 17° 74° (ENE) 00:37:58 435.215
KKS-1 28 Nov 00:34:06 00:37:19 20° 63° (ENE) 00:40:31 437.445
TIGRISAT 28 Nov 00:39:27 00:40:53 11° 302° (WNW) 00:42:19 435.000
BEESAT 28 Nov 00:40:06 00:44:54 87° 255° (WSW) 00:49:45 436.000
POPSAT HIP 1 28 Nov 00:41:12 00:43:12 13° 300° (WNW) 00:45:12 437.405
CUSAT 1 28 Nov 00:49:49 00:53:27 21° 268° (W) 00:57:49 437.405
Oscar 19 28 Nov 01:12:56 01:17:49 41° 98° (E) 01:22:41 437.125/150
AUBIESAT-1 28 Nov 01:15:15 01:18:33 22° 263° (W) 01:22:05 437.475
Gurwin Techsat 1B 28 Nov 01:18:49 01:20:12 11° 86° (E) 01:21:34 435.225
M-CUBED/EXP-1 PRIME 28 Nov 01:22:38 01:25:29 18° 265° (W) 01:28:30 437.505
STARS 28 Nov 01:24:15 01:28:21 40° 69° (ENE) 01:32:29 437.465
DANDE 28 Nov 01:27:15 01:28:38 11° 271° (W) 01:30:07 436.750
ITUPSAT 1 28 Nov 01:38:12 01:42:15 26° 266° (W) 01:46:19 437.325
ISS 28 Nov 01:41:46 01:44:43 30° 357° (N) 01:47:41 145.825
SWISSCUBE 28 Nov 01:49:00 01:52:29 20° 268° (W) 01:55:59 437.505
RS-15 28 Nov 01:49:08 01:59:38 48° 248° (WSW) 02:10:35 29.354- 29.394
BEESAT 3 28 Nov 01:56:51 01:58:13 11° 27° (NNE) 01:59:34 437.485
PCSat 28 Nov 02:07:22 02:10:59 18° 34° (NNE) 02:14:36 145.827
KKS-1 28 Nov 02:09:19 02:13:38 49° 260° (W) 02:17:58 437.445
ITAMSAT 1 28 Nov 02:10:46 02:15:51 53° 100° (E) 02:20:53 435.822/435.867
BEESAT 2 28 Nov 02:13:38 02:15:43 13° 30° (NNE) 02:17:48 435.950
YUBILEINY 28 Nov 02:19:29 02:28:16 77° 95° (E) 02:37:02 435.215
BEESAT 28 Nov 02:22:25 02:23:28 11° 273° (W) 02:24:31 436.000
SO-50 28 Nov 02:30:52 02:34:34 25° 114° (ESE) 02:38:22 436.795
Oscar 19 28 Nov 02:52:35 02:57:00 29° 296° (WNW) 03:01:25 437.125/150
Gurwin Techsat 1B 28 Nov 02:55:40 03:01:01 80° 104° (ESE) 03:06:19 435.225
AIST 2 28 Nov 02:57:34 03:00:21 16° 33° (NNE) 03:03:07 435.215
STARS 28 Nov 03:01:36 03:05:00 22° 267° (W) 03:08:26 437.465
AO-7 28 Nov 03:13:47 03:20:32 26° 92° (E) 03:27:15 29.400- 29.500
HORYU 2 28 Nov 03:16:11 03:20:38 58° 101° (E) 03:25:04 437.375
ISS 28 Nov 03:18:41 03:21:52 44° 17° (NNE) 03:25:02 145.825
MOZHAYETS 4 28 Nov 03:29:45 03:33:57 36° 68° (ENE) 03:38:11
BEESAT 3 28 Nov 03:33:24 03:37:29 46° 48° (NE) 03:41:30 437.485
JAS-2 28 Nov 03:36:33 03:38:43 12° 79° (E) 03:40:49 435.910
PCSat 28 Nov 03:49:57 03:55:24 72° 55° (NE) 04:00:48 145.827
BEESAT 2 28 Nov 03:50:41 03:54:53 60° 51° (NE) 03:59:01 435.950
ITAMSAT 1 28 Nov 03:50:57 03:55:00 24° 299° (WNW) 03:59:01 435.822/435.867
PRISM 28 Nov 03:54:57 03:57:09 14° 60° (ENE) 03:59:21 437.425
SO-50 28 Nov 04:10:27 04:14:51 47° 313° (NW) 04:19:25 436.795
YUBILEINY 28 Nov 04:18:53 04:26:02 27° 298° (WNW) 04:33:13 435.215
AIST 2 28 Nov 04:35:20 04:39:40 82° 53° (NE) 04:43:57 435.215
Gurwin Techsat 1B 28 Nov 04:36:59 04:40:20 17° 302° (WNW) 04:43:41 435.225
HORYU 2 28 Nov 04:53:55 04:56:53 18° 299° (WNW) 04:59:51 437.375
ISS 28 Nov 04:55:23 04:58:31 41° 216° (SW) 05:01:38 145.825
AO-7 28 Nov 05:05:44 05:14:06 77° 292° (WNW) 05:22:26 29.400- 29.500
STRAND 1 28 Nov 05:05:56 05:10:25 31° 65° (ENE) 05:14:55 437.568
MOZHAYETS 4 28 Nov 05:07:22 05:11:15 27° 266° (W) 05:15:11
Cubesat XI-IV 28 Nov 05:09:02 05:12:02 15° 88° (E) 05:15:00 437.490
BEESAT 3 28 Nov 05:12:12 05:15:26 22° 247° (WSW) 05:18:38 437.485
O/OREOS (USA 219) 28 Nov 05:14:39 05:18:56 46° 108° (ESE) 05:23:13 437.305
CUBESAT XI-V 28 Nov 05:17:36 05:21:54 36° 68° (ENE) 05:26:14 437.345
JAS-2 28 Nov 05:18:15 05:25:22 68° 101° (E) 05:31:34 435.910
PRISM 28 Nov 05:27:58 05:32:10 69° 257° (WSW) 05:36:25 437.425
BEESAT 2 28 Nov 05:30:03 05:32:44 17° 249° (WSW) 05:35:23 435.950
PCSat 28 Nov 05:34:30 05:38:14 19° 254° (WSW) 05:41:56 145.827
CUTE-I 28 Nov 05:48:28 05:53:14 33° 96° (E) 05:57:58 437.470
AIST 1 28 Nov 05:52:40 05:56:50 40° 75° (ENE) 06:00:55
SO-50 28 Nov 05:54:17 05:56:35 13° 336° (NNW) 05:58:55 436.795
AIST 2 28 Nov 06:15:55 06:17:40 12° 252° (WSW) 06:19:24 435.215
GONETS M04 28 Nov 06:17:46 06:23:23 19° 75° (ENE) 06:28:59
STRAND 1 28 Nov 06:44:44 06:49:31 38° 263° (W) 06:54:18 437.568
Cubesat XI-IV 28 Nov 06:47:24 06:52:45 79° 287° (WNW) 06:58:03 437.490
O/OREOS (USA 219) 28 Nov 06:55:00 06:58:34 23° 308° (NW) 07:02:08 437.305
CUBESAT XI-V 28 Nov 06:55:23 06:59:24 28° 266° (W) 07:03:28 437.345
AO-7 28 Nov 06:59:46 07:05:38 22° 314° (NW) 07:11:29 29.400- 29.500
JAS-2 28 Nov 07:04:01 07:09:43 27° 303° (WNW) 07:14:56 435.910
CUTE-I 28 Nov 07:28:29 07:33:21 37° 294° (WNW) 07:38:11 437.470
AIST 1 28 Nov 07:31:00 07:34:12 20° 274° (W) 07:37:22
CANX-2 28 Nov 07:42:01 07:42:13 10° 87° (E) 07:42:24 2200.000
GONETS M04 28 Nov 08:09:59 08:18:48 84° 96° (E) 08:27:42
CUTE 1.7 + AOD 2 28 Nov 08:13:39 08:16:55 21° 93° (E) 08:20:11 437.475
BRITE-PL 28 Nov 08:19:00 08:22:16 22° 94° (E) 08:25:33 437.365/2234.400
DOVE 4 28 Nov 08:23:10 08:25:20 14° 90° (E) 08:27:31 437.250
TIGRISAT 28 Nov 08:28:00 08:30:01 13° 60° (ENE) 08:32:03 435.000
Cubesat XI-IV 28 Nov 08:29:29 08:32:00 14° 306° (NW) 08:34:30 437.490
HO-68 28 Nov 08:40:22 08:47:16 47° 99° (E) 08:54:06 435.675
CINEMA 3 28 Nov 08:40:48 08:42:51 13° 90° (E) 08:44:55 145.822/145.860
UNISAT 6 28 Nov 08:42:01 08:44:57 18° 63° (ENE) 08:47:53 437.425
SEEDS 28 Nov 08:42:59 08:46:57 36° 97° (E) 08:50:54 437.485
DELFI C3 28 Nov 08:48:36 08:50:46 14° 90° (E) 08:52:55 145.870
UKube-1 28 Nov 08:50:24 08:52:49 15° 90° (E) 08:55:13 .
AAUSAT CUBESAT 2 28 Nov 08:54:44 08:58:40 36° 97° (E) 09:02:35 437.432
Oscar 11 28 Nov 08:58:59 09:02:22 22° 93° (E) 09:05:44 145.826/435.025
POLYITAN 1 28 Nov 08:59:52 09:02:56 20° 64° (ENE) 09:06:01 437.675
QB50P2 28 Nov 09:00:48 09:03:55 20° 64° (ENE) 09:07:02 145.880/145.840
DUCHIFAT 1 28 Nov 09:05:00 09:08:14 22° 64° (ENE) 09:11:28 145.980
ANTELSAT 28 Nov 09:09:59 09:13:49 33° 68° (ENE) 09:17:41 437.575/2403.000
COMPASS 1 28 Nov 09:11:38 09:15:52 62° 101° (E) 09:20:05 437.405
CANX-2 28 Nov 09:14:26 09:18:45 84° 284° (WNW) 09:23:04 2200.000
GOMX 1 28 Nov 09:15:13 09:19:22 63° 101° (ESE) 09:23:36 467.674
SO-50 28 Nov 09:19:30 09:22:07 14° 26° (NNE) 09:24:46 436.795
NANOSAT C BR1 28 Nov 09:24:10 09:27:58 33° 68° (ENE) 09:31:47 145.865
HUMSAT D 28 Nov 09:24:41 09:25:32 11° 88° (E) 09:26:24 437.325/437.525
DX 1 28 Nov 09:27:20 09:31:20 35° 98° (E) 09:35:19 434.975-435.025
UWE-3 28 Nov 09:28:59 09:32:26 23° 94° (E) 09:35:55 435.000/436.395/437.385
BUGSAT 1 28 Nov 09:31:39 09:35:27 33° 68° (ENE) 09:39:14 437.445
CUBEBUG 2 28 Nov 09:33:51 09:37:37 30° 96° (E) 09:41:27 437.445
QB50P1 28 Nov 09:34:12 09:38:12 41° 70° (ENE) 09:42:12 145.935-145.965
CUTE 1.7 + AOD 2 28 Nov 09:48:59 09:53:01 40° 290° (WNW) 09:57:02 437.475
BRITE-PL 28 Nov 09:57:10 10:00:56 34° 291° (WNW) 10:04:44 437.365/2234.400
ZACube-1 28 Nov 09:57:57 10:01:58 39° 98° (E) 10:06:02 437.345
POPSAT HIP 1 28 Nov 09:59:05 10:03:20 76° 75° (ENE) 10:07:35 437.405
DOVE 4 28 Nov 09:59:23 10:03:30 59° 287° (WNW) 10:07:44 437.250
TIGRISAT 28 Nov 10:02:00 10:06:14 72° 258° (WSW) 10:10:30 435.000
VELOX 1 28 Nov 10:08:25 10:12:23 31° 96° (E) 10:16:19 145.980
GONETS M04 28 Nov 10:09:54 10:16:48 25° 300° (WNW) 10:23:46
CINEMA 3 28 Nov 10:16:17 10:20:29 64° 286° (WNW) 10:24:47 145.822/145.860
ESTCUBE 1 28 Nov 10:17:00 10:19:54 17° 90° (E) 10:22:46 437.505/2401.250
UNISAT 6 28 Nov 10:17:17 10:21:25 49° 260° (W) 10:25:35 437.425
SEEDS 28 Nov 10:19:11 10:22:37 24° 294° (WNW) 10:26:03 437.485
DELFI C3 28 Nov 10:22:21 10:26:27 58° 287° (WNW) 10:30:30 145.870
UKube-1 28 Nov 10:25:06 10:29:23 60° 288° (WNW) 10:33:38 .
HO-68 28 Nov 10:28:19 10:34:52 40° 299° (WNW) 10:41:23 435.675
50 SAT 28 Nov 10:29:04 10:32:57 42° 99° (E) 10:36:51 437.505
AAUSAT CUBESAT 2 28 Nov 10:30:48 10:34:11 23° 294° (WNW) 10:37:33 437.432
FUNcube-1 28 Nov 10:32:08 10:36:24 90° 343° (NNW) 10:40:44 145.935
POLYITAN 1 28 Nov 10:34:32 10:38:37 45° 261° (W) 10:42:42 437.675
Oscar 11 28 Nov 10:34:37 10:38:41 40° 290° (WNW) 10:42:45 145.826/435.025
QB50P2 28 Nov 10:35:30 10:39:34 44° 261° (W) 10:43:39 145.880/145.840
AISAT 28 Nov 10:36:02 10:40:26 62° 102° (ESE) 10:44:48 437.250
CUBEBUG 1 28 Nov 10:39:41 10:43:20 25° 94° (E) 10:46:57 437.445
DUCHIFAT 1 28 Nov 10:39:53 10:43:53 40° 262° (W) 10:47:54 145.980
ANTELSAT 28 Nov 10:47:12 10:50:42 25° 266° (W) 10:54:14 437.575/2403.000
COMPASS 1 28 Nov 10:48:42 10:51:08 15° 299° (WNW) 10:53:35 437.405
CANX-2 28 Nov 10:53:15 10:53:59 10° 302° (WNW) 10:54:42 2200.000
GOMX 1 28 Nov 10:54:53 10:57:04 14° 299° (WNW) 10:59:16 467.674
Oscar 19 28 Nov 10:56:54 10:58:54 12° 54° (NE) 11:00:54 437.125/150
HUMSAT D 28 Nov 10:57:42 11:01:53 77° 285° (WNW) 11:06:06 437.325/437.525
SO-50 28 Nov 10:59:03 11:03:47 51° 48° (NE) 11:08:34 436.795
NANOSAT C BR1 28 Nov 11:00:22 11:03:54 25° 265° (W) 11:07:26 145.865
DX 1 28 Nov 11:03:52 11:07:27 25° 295° (WNW) 11:11:00 434.975-435.025
UWE-3 28 Nov 11:05:11 11:09:04 36° 291° (WNW) 11:13:02 435.000/436.395/437.385
BUGSAT 1 28 Nov 11:07:29 11:11:00 25° 265° (W) 11:14:31 437.445
CUBEBUG 2 28 Nov 11:10:39 11:14:17 28° 293° (WNW) 11:18:00 437.445
QB50P1 28 Nov 11:11:08 11:14:17 20° 267° (W) 11:17:26 145.935-145.965
ZACube-1 28 Nov 11:34:53 11:38:09 22° 295° (WNW) 11:41:27 437.345
TISAT 1 28 Nov 11:35:00 11:38:31 25° 95° (E) 11:42:01 437.305
POPSAT HIP 1 28 Nov 11:38:34 11:39:46 11° 272° (W) 11:40:58 437.405
VELOX 1 28 Nov 11:45:07 11:48:55 29° 294° (WNW) 11:52:41 145.980
ESTCUBE 1 28 Nov 11:52:41 11:57:09 57° 288° (WNW) 12:01:34 437.505/2401.250
SPROUT 28 Nov 11:52:49 11:56:46 35° 97° (E) 12:00:41 437.525
ITAMSAT 1 28 Nov 11:54:25 11:57:39 17° 57° (ENE) 12:00:52 435.822/435.867
50 SAT 28 Nov 12:05:06 12:08:00 19° 296° (WNW) 12:10:54 437.505
SWISSCUBE 28 Nov 12:10:13 12:11:34 11° 87° (E) 12:12:54 437.505
FUNcube-1 28 Nov 12:11:02 12:12:08 11° 301° (WNW) 12:13:13 145.935
AISAT 28 Nov 12:13:53 12:16:37 16° 299° (WNW) 12:19:20 437.250
CUBEBUG 1 28 Nov 12:15:50 12:19:47 34° 292° (WNW) 12:23:41 437.445
CUSAT 1 28 Nov 12:23:22 12:25:49 37° 96° (E) 12:28:20 437.405
YUBILEINY 28 Nov 12:26:44 12:34:59 44° 71° (ENE) 12:43:08 435.215
AO-7 28 Nov 12:28:49 12:32:19 13° 36° (NE) 12:35:50 29.400- 29.500
Oscar 19 28 Nov 12:32:17 12:37:22 76° 73° (ENE) 12:42:31 437.125/150
BEESAT 28 Nov 12:38:53 12:42:25 20° 92° (E) 12:45:56 436.000
SO-50 28 Nov 12:40:05 12:44:07 26° 246° (WSW) 12:48:09 436.795
Gurwin Techsat 1B 28 Nov 12:40:57 12:45:10 25° 62° (ENE) 12:49:23 435.225
AUBIESAT-1 28 Nov 12:54:38 12:58:48 27° 99° (E) 13:02:51 437.475
DANDE 28 Nov 13:01:07 13:03:44 60° 282° (WNW) 13:06:21 436.750
M-CUBED/EXP-1 PRIME 28 Nov 13:01:35 13:06:05 34° 101° (E) 13:10:27 437.505
TISAT 1 28 Nov 13:10:39 13:14:24 32° 292° (WNW) 13:18:08 437.305
SPROUT 28 Nov 13:29:14 13:32:43 24° 295° (WNW) 13:36:10 437.525
ITAMSAT 1 28 Nov 13:31:17 13:36:30 80° 256° (WSW) 13:41:45 435.822/435.867
ITUPSAT 1 28 Nov 13:35:25 13:40:14 67° 102° (ESE) 13:45:00 437.325
VERMONT LUNAR 28 Nov 13:35:31 13:38:05 19° 159° (SSE) 13:40:40 437.305
PHONESAT 2.4 28 Nov 13:36:02 13:38:17 16° 155° (SSE) 13:40:33 2401.200-2431.200
O/OREOS (USA 219) 28 Nov 13:43:22 13:46:36 19° 50° (NE) 13:49:49 437.305
SWISSCUBE 28 Nov 13:45:17 13:50:07 90° 197° (SSW) 13:54:54 437.505
JAS-2 28 Nov 13:52:33 13:55:03 12° 44° (NE) 13:57:33 435.910
KKS-1 28 Nov 13:58:25 14:02:09 26° 95° (E) 14:05:53 437.445
RS-15 28 Nov 14:06:36 14:14:36 24° 101° (E) 14:22:32 29.354- 29.394
Oscar 19 28 Nov 14:14:27 14:17:18 15° 271° (W) 14:20:11 437.125/150
AO-7 28 Nov 14:15:18 14:23:03 46° 60° (ENE) 14:30:51 29.400- 29.500
BEESAT 28 Nov 14:15:54 14:20:34 51° 290° (WNW) 14:25:11 436.000
HORYU 2 28 Nov 14:17:12 14:21:37 74° 74° (ENE) 14:26:04 437.375
Gurwin Techsat 1B 28 Nov 14:19:37 14:24:48 53° 260° (W) 14:30:01 435.225
YUBILEINY 28 Nov 14:23:41 14:31:50 47° 272° (W) 14:39:57 435.215
AUBIESAT-1 28 Nov 14:29:14 14:33:53 43° 297° (WNW) 14:38:26 437.475
M-CUBED/EXP-1 PRIME 28 Nov 14:36:35 14:41:04 35° 299° (WNW) 14:45:28 437.505
STARS 28 Nov 14:47:57 14:52:18 57° 101° (E) 14:56:38 437.465
MaSat-1 28 Nov 14:49:37 14:52:27 66° 299° (WNW) 14:55:03 437.345
VERMONT LUNAR 28 Nov 15:12:44 15:16:01 33° 175° (S) 15:19:18 437.305
PHONESAT 2.4 28 Nov 15:13:08 15:16:28 31° 172° (S) 15:19:48 2401.200-2431.200
ITUPSAT 1 28 Nov 15:14:30 15:17:37 17° 300° (WNW) 15:20:43 437.325
ITAMSAT 1 28 Nov 15:15:36 15:16:49 11° 274° (W) 15:18:03 435.822/435.867
